This is the latest recevied weather packets stored in our database for station/object N8SDR. If no packets are shown the sender has not sent any weather packets the latest 10 day(s).
| Time | Temp. | Humidity | Pressure | Rain* | Wind** | Luminosity | Snow |
|---|---|---|---|---|---|---|---|
| 1778197759 | 16.67° C | 42% | 1010.5 hPa | 0 mm | - | 35 W/m² | - |
| 1778197455 | 16.67° C | 44% | 1010.2 hPa | 0 mm | - | 41 W/m² | - |
| 1778197152 | 16.67° C | 43% | 1010.3 hPa | 0 mm | - | 47 W/m² | - |
| 1778196849 | 16.11° C | 42% | 1010.4 hPa | 0 mm | - | 52 W/m² | - |
| 1778196548 | 16.11° C | 42% | 1010.2 hPa | 0 mm | - | 75 W/m² | - |
| 1778196244 | 16.67° C | 43% | 1010.2 hPa | 0 mm | - | 82 W/m² | - |
| 1778195941 | 16.11° C | 43% | 1010.2 hPa | 0 mm | - | 91 W/m² | - |
| 1778195637 | 16.11° C | 42% | 1010.3 hPa | 0 mm | - | 98 W/m² | - |
| 1778195333 | 16.11° C | 43% | 1010.1 hPa | 0 mm | - | 110 W/m² | - |
| 1778195031 | 16.67° C | 43% | 1010.3 hPa | 0 mm | - | 126 W/m² | - |
| 1778194731 | 16.67° C | 42% | 1010.5 hPa | 0 mm | - | 143 W/m² | - |
| 1778194427 | 16.11° C | 42% | 1010.3 hPa | 0 mm | - | 149 W/m² | - |
| 1778194123 | 16.67° C | 41% | 1010.4 hPa | 0 mm | - | 170 W/m² | - |
| 1778193820 | 16.11° C | 43% | 1010.1 hPa | 0 mm | - | 173 W/m² | - |
| 1778193516 | 16.67° C | 42% | 1010.1 hPa | 0 mm | - | 192 W/m² | - |
| 1778193212 | 16.11° C | 42% | 1010.1 hPa | 0 mm | - | 219 W/m² | - |
| 1778192910 | 16.11° C | 45% | 1010.2 hPa | 0 mm | - | 227 W/m² | - |
| 1778192606 | 16.11° C | 43% | 1010.2 hPa | 0 mm | - | 232 W/m² | - |
| 1778192303 | 16.11° C | 42% | 1010.1 hPa | 0 mm | - | 256 W/m² | - |
| 1778192000 | 16.67° C | 42% | 1010.4 hPa | 0 mm | - | 287 W/m² | - |
| 1778191696 | 16.11° C | 43% | 1010.5 hPa | 0 mm | - | 302 W/m² | - |
| 1778191395 | 16.67° C | 42% | 1010.4 hPa | 0 mm | - | 321 W/m² | - |
| 1778191090 | 16.67° C | 42% | 1010.5 hPa | 0 mm | - | 278 W/m² | - |
| 1778190788 | 16.11° C | 41% | 1010.3 hPa | 0 mm | - | 119 W/m² | - |
| 1778190485 | 16.11° C | 44% | 1010.3 hPa | 0 mm | - | 296 W/m² | - |
* Rain latest hour (hover to see other rain measurements)
** Current wind speed in m/s (hover to see current wind gust speed)